STARLINK-31687, 59798

Orbit data source: Space-Track

STARLINK-31687, 59798 is a payload satellite owned by SpaceX/Seattle (US) in LEO that was launched on Sat, 18 May 2024 UTC via an FALCON 9 launch vehicle from the Air Force Eastern Test Range (AFETR). Payload-class satellites include a variety of spacecraft equipped with specific instruments for various scientific and technological missions. These include communications satellites like Starlink; space stations such as the ISS; scientific satellites like the Hubble; Earth observation satellites from companies like Planet Labs, Umbra, and HawkEye 360; GPS; miniature CubeSats for education and research; and military/defense satellites.

Loading next visibility...
Identifier
59798, 2024-093S
Orbit
LEO
Country
Flag of USUS
Related business
Manufacturer
SpaceX/Seattle
Mission
Operational Commercial Communications
Bus & Motor
STARLINK V2M, Unknown motor
Mass
730 kg wet, ~700 kg dry
Launch date (UTC)
2024-05-18 (2 years ago)
Launch vehicle
FALCON 9
Launch site
Air Force Eastern Test Range (AFETR)
Object type
Payload
Rocket body
Debris
Shape & HBR
Box + 2 Pan, 17.7 m
Radar Cross Section
33.884 m², Large (>1 m²)

Expand to show TLE details & history
Last TLE update: 3 days ago

TLE from 3 days ago
0 STARLINK-31687
1 59798U 24093S   26170.51339062 -.00000213  00000-0  17933-5 0  9996
2 59798  43.0022 354.2234 0001698 269.0498  91.0159 15.27573948118260
Epoch: 2026-06-19T12:19Z
TLE epoch observation values (Epoch: 2026-06-19T12:19:16.949Z)
Latitude
-0.00003°
Longitude
-98.33854°
Altitude
482.864 km
Speed
7.626 km/s
True Right ascension
23h 36m 53s
True Declination
0° 00' 00"
Sunlit
Object was in daylight at epoch
Visualization orbit readout
Latitude
Unknown
Longitude
Unknown
Altitude
Unknown
Speed
Unknown
Apparent Right ascension
Unknown
Apparent Declination
Unknown
Sunlit
N/A
Visualization observer readout
Local Sidereal Time
21:38:33
Azimuth
Unknown
Elevation
Unknown
Doppler factor
Unknown
Orbital elements
Apogee altitude
486.177 km
Perigee altitude
483.847 km
Semi-major axis
6,863.149 km
Eccentricity
0.00017
Inclination
43.0022°
RAAN
354.2234°
Arg. of periapsis
269.0498°
True anomaly
91.03535°
Mean anomaly
91.0159°
Eccentric anomaly
91.02563°
Mean motion
3.81732 °/min
Orbital period
94.31 mins
BSTAR
0.0000017933
Loading maneuver chart data...
Computing Atmospheric mass density...
Loading historical data...
Loading historical data...
Loading historical data...
Loading historical data...
Loading historical data...
Loading historical data...
Loading historical data...

Documentation

Showing up to 5 results
|